星链-30472 (STARLINK-30472 )

导读

STARLINK-30472是美国太空探索技术公司(SpaceX)星链互联网卫星星座的一员,星链计划旨在为全球提供高速低延迟宽带互联网服务。该卫星于当地时间2023年9月20日发射入轨,加入已部署的数千颗星链卫星行列,延续星链星座扩容进程,推动全球卫星互联网覆盖范围与服务能力持续拓展。

基本信息
目录编号:
57901
目录名称:
STARLINK-30472
国际标识:
2023-146L
轨道中心:
EARTH
卫星名称:
星链-30472
卫星全名:
星链-30472 (STARLINK-30472 )
卫星状态:
在轨 (已飞行1087 天)
发射日期:
2023-09-20 UTC
国别 :
美国 (US)
星等 :
--
该卫星已列入 空间交会检测服务 Space Conjunction Data Service (SCDS) ,当前飞行风险评估等级: 无高风险
轨道信息
数据来源 国际轨道数据
星历时间: 2026-09-11T15:01:29+0800
7小时前
查看轨道信息
半长轴: 6861.165km
偏心率: 0.0000808
轨道倾角: 43.002°
近地点辐角 264.059°
升交点赤经 342.446°
平近点角 96.017°
近地点: 482.473km
远地点: 483.583km
周期: 94.266分钟
每日圈数: 15.275873
详细信息
固有亮度:
5
最大亮度:
0.3
卫星平台:
Starlink v2.0 mini
覆盖范围:
全球
运营商:
太空探索技术公司
运营商所在国:
美国
制造商(研发单位):
太空探索技术公司
制造商所在国:
美国
使用方式:
暂无
卫星简介
星链(Starlink)计划是由太空探索技术公司(SpaceX)提出的一个巨型低轨卫星互联网星座项目,计划在2019年至2024年间在太空搭建由约1.2万颗卫星组成的“星链”网络,其中1584颗将部署在地球上空550千米处的近地轨道,并从2020年开始工作。该卫星仍在工作。
2D轨道图
3D轨道图
轨道高度分析图
轨道倾角分析图
轨道综合分析图
查看轨道综合分析图
与全量物体交会距离演化趋势
与全量物体交会风险概率演化趋势